West Plains, MO

7:15 PM CDT on April 28, 2017 (GMT -0500)
West Plains Municipal

Weather History for KUNO - September, 2013

Change the Weather History Date:

Wednesday, September 11, 2013

  Actual Average Record
Temperature  
Mean Temperature 80 °F 71 °F  
Max Temperature 94 °F 83 °F 96 °F (1953)
Min Temperature 66 °F 59 °F 40 °F (1976)
Degree Days  
Heating Degree Days 0 0  
Month to date heating degree days 0 0  
Since 1 July heating degree days 4 1  
Cooling Degree Days 15 6  
Month to date cooling degree days 120 88  
Year to date cooling degree days 962 1260  
Growing Degree Days 28 (Base 50)    
Moisture  
Dew Point 66 °F    
Average Humidity 66    
Maximum Humidity 93    
Minimum Humidity 38    
Precipitation  
Precipitation T in 0.15 in 2.57 in (1975)
Month to date precipitation 0.08 1.62  
Year to date precipitation 42.31 31.69  
Sea Level Pressure  
Sea Level Pressure 30.11 in    
Wind  
Wind Speed 2 mph (SSE)    
Max Wind Speed 15 mph    
Max Gust Speed 20 mph    
Visibility 9 miles    
Events Thunderstorm    
T = Trace of Precipitation, MM = Missing Value Source: NWS Daily Summary

Daily Weather History Graph

Daily Weather History Graph

Search for Another Location

Airport or City:

Trip Planner

Search our weather history database for the weather conditions in past years. The results will help you decide how hot, cold, wet, or windy it might be!

Date:

Astronomy

Sep. 11, 2013 Rise Set
Actual Time 6:46 AM CDT 7:20 PM CDT
Civil Twilight 6:20 AM CDT 7:46 PM CDT
Nautical Twilight 5:49 AM CDT 8:17 PM CDT
Astronomical Twilight 5:18 AM CDT 8:48 PM CDT
Moon 1:05 PM CDT (9/11) 11:26 PM CDT (9/11)
Length of Visible Light 13h 26m
Length of Day
12h 34m
Waxing Crescent, 39% of the Moon is Illuminated
Sep 11
Waxing Crescent
Sep 12
First Quarter
Sep 19
Full
Sep 26
Last Quarter
Oct 4
New

Hourly Weather History & Observations

Time (CDT) Temp. Heat Index Dew Point Humidity Pressure Visibility Wind Dir Wind Speed Gust Speed Precip Events Conditions
12:53 AM 75.0 °F - 64.9 °F 71% 30.11 in 10.0 mi South 3.5 mph - N/A   Clear
1:53 AM 71.1 °F - 64.9 °F 81% 30.12 in 10.0 mi Calm Calm - N/A   Clear
2:53 AM 69.1 °F - 64.9 °F 87% 30.11 in 9.0 mi West 3.5 mph - N/A   Clear
3:53 AM 70.0 °F - 64.9 °F 84% 30.11 in 9.0 mi Calm Calm - N/A   Clear
4:53 AM 69.1 °F - 64.9 °F 87% 30.12 in 8.0 mi Calm Calm - N/A   Clear
5:53 AM 69.1 °F - 64.9 °F 87% 30.12 in 8.0 mi Calm Calm - N/A   Clear
6:53 AM 66.9 °F - 64.0 °F 90% 30.14 in 5.0 mi Calm Calm - N/A   Clear
7:53 AM 71.1 °F - 66.0 °F 84% 30.15 in 7.0 mi Calm Calm - N/A   Clear
8:53 AM 78.1 °F - 68.0 °F 71% 30.15 in 8.0 mi Calm Calm - N/A   Clear
9:53 AM 84.9 °F 87.1 °F 66.0 °F 53% 30.15 in 10.0 mi Variable 4.6 mph - N/A   Clear
10:53 AM 86.0 °F 88.2 °F 66.0 °F 51% 30.15 in 10.0 mi Variable 4.6 mph - N/A   Clear
11:53 AM 89.1 °F 91.3 °F 66.0 °F 46% 30.14 in 10.0 mi WNW 3.5 mph - N/A   Clear
12:53 PM 91.9 °F 92.5 °F 62.1 °F 37% 30.13 in 10.0 mi Calm Calm - N/A   Clear
1:53 PM 90.0 °F 90.6 °F 63.0 °F 40% 30.11 in 10.0 mi SSE 5.8 mph - N/A   Scattered Clouds
2:53 PM 91.9 °F 92.5 °F 62.1 °F 37% 30.08 in 10.0 mi Calm Calm - N/A   Scattered Clouds
3:53 PM 90.0 °F 92.4 °F 66.0 °F 45% 30.07 in 10.0 mi NNE 6.9 mph - N/A   Clear
4:53 PM 81.0 °F 83.3 °F 66.9 °F 62% 30.09 in 10.0 mi ESE 4.6 mph - 0.00 in   Overcast
5:12 PM 80.6 °F 83.2 °F 68.0 °F 65% 30.12 in 9.0 mi SSE 4.6 mph - N/A Thunderstorm Partly Cloudy
5:53 PM 79.0 °F - 69.1 °F 72% 30.10 in 10.0 mi SE 9.2 mph - N/A Thunderstorm Scattered Clouds
6:15 PM 78.8 °F - 68.0 °F 69% 30.13 in 10.0 mi SSE 9.2 mph - N/A   Partly Cloudy
6:53 PM 77.0 °F - 68.0 °F 74% 30.09 in 10.0 mi Calm Calm - N/A   Clear
7:53 PM 75.0 °F - 68.0 °F 79% 30.09 in 10.0 mi Calm Calm - N/A   Partly Cloudy
8:53 PM 73.0 °F - 68.0 °F 84% 30.10 in 10.0 mi Calm Calm - N/A   Clear
9:53 PM 72.0 °F - 68.0 °F 87% 30.10 in 9.0 mi Calm Calm - N/A   Clear
10:53 PM 70.0 °F - 66.9 °F 90% 30.10 in 8.0 mi Calm Calm - N/A   Clear
11:53 PM 70.0 °F - 66.9 °F 90% 30.09 in 8.0 mi Calm Calm - N/A   Clear